Torna al catalogo

ATLAS 5 CENTAUR DEB

AttivoHEO
NORAD 46661·DEBRIS·🇺🇸 United States

Lanciato Oct 17, 2018 da Cape Canaveral Space Force Station

Loading…

Prossimi Passaggi (prossime 24 ore)

TLE

AggiornatoSource: Space-Track

Epoca: Sep 14, 2026, 21:04 UTC

1 46661U 18079CP  26257.87794409 -.00000178  00000-0  00000-0 0  9995
2 46661  13.6023  29.3003 4507422 322.3494  13.3156  1.82949301 39668

Traccia ATLAS 5 CENTAUR DEB in tempo reale con AllMySat

Download on the App Store